TimeCDT,TemperatureF,Dew PointF,Humidity,Sea Level PressureIn,VisibilityMPH,Wind Direction,Wind SpeedMPH,Gust SpeedMPH,PrecipitationIn,Events,Conditions,WindDirDegrees,DateUTC
12:53 AM,57.9,37.9,47,30.16,10.0,SSE,3.5,-,N/A,,Clear,150,2012-09-29 05:53:00
1:53 AM,50.0,39.9,68,30.16,10.0,Calm,Calm,-,N/A,,Clear,0,2012-09-29 06:53:00
2:53 AM,46.9,39.9,77,30.17,10.0,SW,3.5,-,N/A,,Clear,220,2012-09-29 07:53:00
3:53 AM,48.0,39.9,74,30.16,10.0,WSW,4.6,-,N/A,,Clear,240,2012-09-29 08:53:00
4:53 AM,48.9,39.9,71,30.16,10.0,Calm,Calm,-,N/A,,Clear,0,2012-09-29 09:53:00
5:53 AM,50.0,41.0,71,30.16,10.0,NNW,3.5,-,N/A,,Clear,330,2012-09-29 10:53:00
6:53 AM,46.9,39.9,77,30.17,10.0,North,4.6,-,N/A,,Clear,350,2012-09-29 11:53:00
7:53 AM,46.0,39.9,79,30.18,10.0,NW,3.5,-,N/A,,Clear,310,2012-09-29 12:53:00
8:53 AM,55.0,46.0,72,30.19,10.0,Calm,Calm,-,N/A,,Clear,0,2012-09-29 13:53:00
9:53 AM,64.9,48.9,56,30.18,10.0,NW,4.6,-,N/A,,Clear,320,2012-09-29 14:53:00
10:53 AM,69.1,46.0,44,30.17,10.0,Variable,3.5,-,N/A,,Clear,0,2012-09-29 15:53:00
11:53 AM,71.1,41.0,34,30.15,10.0,ENE,4.6,-,N/A,,Clear,60,2012-09-29 16:53:00
12:53 PM,73.9,41.0,30,30.12,10.0,Variable,3.5,-,N/A,,Clear,0,2012-09-29 17:53:00
1:53 PM,75.0,41.0,29,30.10,10.0,Calm,Calm,-,N/A,,Clear,0,2012-09-29 18:53:00
2:53 PM,77.0,41.0,28,30.07,10.0,East,3.5,-,N/A,,Clear,90,2012-09-29 19:53:00
3:53 PM,77.0,42.1,29,30.05,7.0,South,5.8,-,N/A,,Clear,170,2012-09-29 20:53:00
4:53 PM,77.0,42.1,29,30.04,10.0,Calm,Calm,-,N/A,,Clear,0,2012-09-29 21:53:00
5:53 PM,75.0,44.1,33,30.04,7.0,WSW,3.5,-,N/A,,Clear,240,2012-09-29 22:53:00
6:14 PM,73.4,44.6,36,30.04,2.5,Calm,Calm,-,N/A,,Haze,0,2012-09-29 23:14:00
6:21 PM,75.2,42.8,31,30.04,4.0,SW,3.5,-,N/A,,Haze,230,2012-09-29 23:21:00
6:53 PM,72.0,44.1,37,30.04,9.0,SW,3.5,-,N/A,,Clear,230,2012-09-29 23:53:00
7:53 PM,64.9,43.0,45,30.04,10.0,West,4.6,-,N/A,,Clear,260,2012-09-30 00:53:00
8:53 PM,64.9,42.1,43,30.04,10.0,West,5.8,-,N/A,,Clear,270,2012-09-30 01:53:00
9:53 PM,61.0,42.1,50,30.04,10.0,West,5.8,-,N/A,,Clear,280,2012-09-30 02:53:00
10:53 PM,57.9,42.1,56,30.04,10.0,WNW,6.9,-,N/A,,Clear,290,2012-09-30 03:53:00
11:53 PM,55.9,42.1,60,30.03,10.0,WNW,6.9,-,N/A,,Clear,290,2012-09-30 04:53:00